sat.trackr.live / text

‹ back to catalog

ALISIO-1

NORAD 58562 · 2023-185M

PAYLOAD ACTIVE UNKNOWN

§ Identity

Operator
Country
SPN
Launch date
2023-12-01
Launch site
AFWTR
Launch vehicle
Mass (kg)
RCS (m²)

External: N2YO · Heavens-Above · Gunter

§ Orbital elements

Epoch: 2026-09-21T22:19:29.006112Z

Period
94.89 min
Inclination
97.5294°
Eccentricity
0.0005762
Mean motion
15.17621859 rev/d
Perigee alt
509.1 km
Apogee alt
517.0 km
Semi-major
6,891.2 km
B*
1.0253e-4
RAAN
337.7521°
Arg perigee
354.9494°
Mean anomaly
5.1681°
Rev number
15,322

§ Raw data

ALISIO-11 58562U 23185M   26264.93019683  .00001994  00000+0  10253-3 0  99902 58562  97.5294 337.7521 0005762 354.9494   5.1681 15.17621859153229

JSON: /api/v1/satellites/58562 · /tle

For live sub-satellite position, see the globe view (requires WebGL).

§ Visibility from observer

Set your observer location to see the next 7 days of passes ≥ 10°. The values pass through the URL so the page stays shareable.

No JS? Fill the form by hand. The geolocation button needs JavaScript.